Tracking 25648 objects as of 16-May-2022
HD Live streaming from Space Station
objects crossing your sky now

ARIANE 2 DEB

Track ARIANE 2 DEB now!
10-day predictions


NORAD ID: 33584
Int'l Code: 1989-027E
Perigee: 394.3 km
Apogee: 21,887.5 km
Inclination: 5.9 °
Period: 384.4 minutes
Semi major axis: 17511 km
RCS: 0.3666 m2 (medium)
Launch date: April 2, 1989
Source: France (FR)
Launch site: FRENCH GUIANA (FRGUI)

Note: This is SATELLITE DEBRIS
aabbcc
Your satellite tracking list
Your tracking list is empty




NASA's NSSDC Master Catalog

Two Line Element Set (TLE):
1 33584U 89027E   22135.55344147  .00003705  00000-0  35424-2 0  9990
2 33584   5.8770  88.2058 6136749 288.0282  16.9968  3.74630217110205
Source of the keplerian elements: AFSPC